Regional Weather Roundup
Issued by NWS

Home | Current Version | Previous Version | Text Only | Print | Product List | Glossary On
Versions: 1 2 3 4 5 6 7 8 9 10 11 12 13 14 15 16 17 18 19 20 21 22 23 24 25 26 27 28 29 30 31 32 33 34 35 36 37 38 39 40 41 42 43 44 45 46 47 48 49 50
000
ASUS44 KFWD 261915
RWRTX
NORTH TEXAS HOURLY WEATHER ROUNDUP
NATIONAL WEATHER SERVICE FORT WORTH TX
200 PM CDT THU MAY 26 2016

NOTE: "FAIR" INDICATES FEW OR NO CLOUDS BELOW 12,000 FEET WITH NO
SIGNIFICANT WEATHER AND/OR OBSTRUCTIONS TO VISIBILITY.

TXZ118-119-262000-
DALLAS/FORT WORTH METROPLEX

CITY           SKY/WX    TMP DP  RH WIND       PRES   REMARKS
DFW AIRPORT    LGT RAIN  80  61  52 SE21G29   29.86S
DALLAS LOVE    CLOUDY    79  64  60 SE18G26   29.87R
FTW MEACHAM    CLOUDY    81  63  54 SE14      29.85F
DAL-EXECUTIVE  CLOUDY    76  64  66 SE16G23   29.86S
FTW-ALLIANCE   CLOUDY    79  63  57 SE9       29.85F
FTW-NAS-JRB    CLOUDY    80  62  54 SE14      29.86F
FTW-SPINKS     SUNNY     75  64  69 SE12G25   29.88F
ARLINGTON      LGT RAIN  79  65  62 SE20      29.86F
GRAND PRAIRIE  MOSUNNY   81  59  47 SE16G23   29.87F
ADDISON        DRIZZLE   81  64  57 SE12G32   29.87S
MESQUITE       SUNNY    N/A N/A N/A SE16      29.89R
LANCASTER      CLOUDY    73  64  71 SE14G20   29.89F
$$

TXZ091>094-102>105-117-120-121-131>134-262000-
NORTH CENTRAL TEXAS

CITY           SKY/WX    TMP DP  RH WIND       PRES   REMARKS
SHRMAN/DENISON CLOUDY    78  65  64 S10G16    29.88F
GAINESVILLE    CLOUDY    78  67  69 S13G18    29.88S
BOWIE          CLOUDY    79  63  58 SE12G21   29.84F
BRIDGEPORT     CLOUDY    78  67  68 SE12G17   29.87S
DECATUR        PTSUNNY   79  64  60 SE10G16   29.86F
DENTON         CLOUDY    79  65  62 S8        29.86S
MCKINNEY       LGT RAIN  76  68  76 SE16      29.88S
GREENVILLE     CLOUDY    77  64  65 SE17G23   29.89F
ROCKWALL       DRIZZLE   74  67  76 SE10G20   29.87S
TERRELL        CLOUDY    73  67  81 SE12      29.90F
WAXAHACHIE     CLOUDY    74  67  79 SE8       29.89F
CLEBURNE       CLOUDY    73  70  88 SE15      29.88F
GRANBURY       LGT RAIN  77  66  69 SE14      29.88R
$$

TXZ083>090-098>101-113>116-127>130-139>142-154-155-262000-
WESTERN NORTH TEXAS

CITY           SKY/WX    TMP DP  RH WIND       PRES   REMARKS
WICHITA FALLS  CLOUDY    82  66  58 SE21G35   29.78F
WF-KICKAPOO    CLOUDY    83  65  53 SE20G31   29.79F
VERNON         SUNNY     87  65  47 S21       29.77F
ABILENE        SUNNY     87  70  56 S14       29.80F HX  92
ABILENE-DYESS  PTSUNNY   87  65  47 S21G28    29.78F
BRECKENRIDGE   CLOUDY    87  69  56 S15G21    29.80F HX  91
GRAHAM         PTSUNNY   85  71  64 SE10G18   29.79F HX  90
MINERAL WELLS  CLOUDY    79  68  69 SE13      29.84F
STEPHENVILLE   CLOUDY    76  67  74 SE9       29.89F
COMANCHE       CLOUDY    80  74  80 SE10      29.84F
BROWNWOOD      PTSUNNY   84  72  65 S14       29.83F
COLEMAN        MOSUNNY   88  69  53 S15G26    29.83F HX  92
$$

TXZ143>147-156>162-174-175-262000-
CENTRAL TEXAS

CITY           SKY/WX    TMP DP  RH WIND       PRES   REMARKS
WACO           CLOUDY    73  66  78 SE20      29.87F
WACO-TSTC      PTSUNNY   72  68  88 S8        29.87F
WACO-MCGREGOR  LGT RAIN N/A N/A N/A E21         N/A
HILLSBORO      CLOUDY    72  65  79 E17       29.88S
CORSICANA      CLOUDY    74  67  78 SE10      29.90F
MEXIA          DRIZZLE   69  68  98 SE10      29.90F
HEARNE         CLOUDY    70  69  98 N8        29.88F
CAMERON        TSTM      71  70  96 E14G21    29.87F
TEMPLE         CLOUDY    73  69  87 E23G29    29.88F
KILLEEN        MOSUNNY   88  75  66 SE14      29.82F HX  97
KILLEEN-SKYLRK MOSUNNY   80  74  81 E18       29.85F
FORT HOOD      PTSUNNY   77  73  85 E16       29.83F
GATESVILLE     PTSUNNY   75  72  88 SE7G17    29.86F
HAMILTON       CLOUDY    75  75  99 E13       29.86F
LAMPASAS       MOSUNNY   87  77  72 S12G17    29.82F HX 100
$$

TXZ095>097-106>112-122>126-135>138-148>153-164>167-262000-
EAST TEXAS

CITY           SKY/WX    TMP DP  RH WIND       PRES   REMARKS
PARIS          PTSUNNY   75  66  73 S21       29.88F
SULPHUR SPRNGS CLOUDY    76  69  80 S16G24    29.91F
MOUNT PLEASANT CLOUDY    76  76  98 S9        29.97S
GILMER         TSTM      75  74  95 S8        29.98S
MINEOLA        DRIZZLE   72  66  83 SE7       29.92F
TYLER          RAIN      71  67  87 S7        29.98F
LONGVIEW       TSTM      75  75 100 S6        29.96F FOG
MARSHALL       CLOUDY    75  72  90 S5        29.99F
ATHENS         LGT RAIN  68  68 100 SE8       29.95F
PALESTINE      RAIN      69  68  97 N6        29.99F
JACKSONVILLE   TSTM      69  68  96 W13G18    30.03R
HENDERSON      TSTM      75  74  96 SE5       29.98F
CENTER         LGT RAIN  79  78  96 SE3       29.99S
NACOGDOCHES    CLOUDY    75  73  94 S3        29.99R THUNDER
LUFKIN         LGT RAIN  76  74  93 E10       29.94F FOG
$$

SUPPLEMENTAL OBSERVATIONS (CENTRAL)

CITY           SKY/WX    TMP DP  RH WIND       PRES   REMARKS
LAKE TEXOMA      N/A     81  72  74 S5          N/A
CADDO GRASSLND   N/A     81  70  69 S15         N/A
PAT MAYSE LAKE   N/A     77  75  94 SE15        N/A
LAKE LIMESTONE   N/A     70  68  94 E6G14       N/A
MCGREGOR         N/A     73  68  83 E14         N/A
TEMPLE           N/A     72  68  88 E21G29      N/A
$$

SUPPLEMENTAL OBSERVATIONS (WEST)

CITY           SKY/WX    TMP DP  RH WIND       PRES   REMARKS
MILLERS CREEK    N/A     86  70  58 S18G25      N/A  HX  90
POSSUM KINGDOM   N/A     86  72  62 SE14G23     N/A  HX  92
LBJ GRASSLAND    N/A     79  66  65 CALM        N/A
GRANBURY         N/A     75  64  69 SE14G24     N/A
COMANCHE         N/A     81  72  74 E12         N/A
HAMBY            N/A     90  68  48 S21G26      N/A  HX  93
IVIE RESERVOIR   N/A     90  68  48 S16G23      N/A  HX  93
COLORADO BEND    N/A     88  72  58 SW15G22     N/A  HX  94
$$

SUPPLEMENTAL OBSERVATIONS (EAST)

CITY           SKY/WX    TMP DP  RH WIND       PRES   REMARKS
CLARKSVILLE      N/A     75  72  88 S15G24      N/A
TEXARKANA        N/A     75  72  88 SE1         N/A
LINDEN           N/A     73  68  83 W1G14       N/A
CADDO LAKE       N/A     77  72  83 SE2         N/A
HENDERSON        N/A     75  72  88 SE3         N/A
LUFKIN           N/A     75  72  88 MISG        N/A
S SABINE NF      N/A     79  75  89 CALM        N/A
$$

SUPPLEMENTAL OBSERVATIONS ARE A COLLECTION OF AUTOMATED INSTRUMENTS
THAT ARE MAINTAINED BY A VARIETY OF FEDERAL AND STATE AGENCIES.
CERTAIN ELEMENTS...SUCH AS HUMIDITY VALUES AND SUSTAINED WIND
SPEEDS...MAY BE APPROXIMATED.




USA.gov is the U.S. government's official web portal to all federal, state and local government web resources and services.